Regional Weather Roundup
Issued by NWS Cleveland, OH

Home | Current Version | Previous Version | Graphics & Text | Print | Product List | Glossary On
Versions: 1 2 3 4 5 6 7 8 9 10 11 12 13 14 15 16 17 18 19 20 21 22 23 24 25 26 27 28 29 30 31 32 33 34 35 36 37 38 39 40 41 42 43 44 45 46 47 48 49 50
000
ASUS41 KCLE 280110
RWRCLE
OHIO REGIONAL WEATHER ROUNDUP
NATIONAL WEATHER SERVICE CLEVELAND, OH
800 PM EST THU NOV 27 2014

NOTE: "FAIR" INDICATES FEW OR NO CLOUDS BELOW 12,000 FEET WITH NO
SIGNIFICANT WEATHER AND/OR OBSTRUCTIONS TO VISIBILITY.

OHZ001>008-015>018-024>027-034-035-043-044-280200-
   NORTHWEST OHIO

CITY           SKY/WX    TMP DP  RH WIND       PRES   REMARKS
DEFIANCE       CLOUDY    29  22  75 NW9       30.31R WCI  20
FINDLAY        CLOUDY    30  25  81 W15       30.28R WCI  19
TOLEDO EXPRESS CLOUDY    29  23  78 NW12      30.28R WCI  19
TOLEDO EXEC    LGT SNOW  30  25  81 NW15G22   30.29R WCI  19
LIMA           CLOUDY    30  24  78 W18G25    30.30R WCI  18
$$

OHZ009>014-019>023-028>033-038-089-280200-
   NORTHEAST OHIO

CITY           SKY/WX    TMP DP  RH WIND       PRES   REMARKS
CLE-HOPKINS    HVY SNOW  29  27  92 W7        30.23S VSB 1/4 WCI  22
CLE-LAKEFRONT  LGT SNOW  32  28  85 NW20      30.21R VSB 1   WCI  20
CUY CO. ARPT   SNOWSHWR  34  28  80 W14       30.19  WCI  24
LORAIN-ELYRIA  PTCLDY    30  25  81 W10G20    30.22R WCI  21
ASHTABULA      CLOUDY    32  23  69 NW13G22   30.17R WCI  22
AKRON-CANTON   FLURRIES  30  25  81 W12       30.20R WCI  20
WOOSTER        LGT SNOW  29  25  85 W10       30.22R FOG     WCI  20
MANSFIELD      LGT SNOW  29  26  89 W8G21     30.22R VSB 3/4 WCI  21
YOUNGSTOWN     LGT SNOW  29  25  85 W13       30.16R FOG     WCI  19
$$

OHZ042-051>053-060>062-070>072-077>081-280200-
  SOUTHWEST OHIO

CITY           SKY/WX    TMP DP  RH WIND       PRES   REMARKS
CINC-COVINGTON CLOUDY    30  19  63 NW16      30.37R WCI  19
CINC-LUNKEN    CLOUDY    31  20  63 NW9       30.40R WCI  23
HAMILTON       CLOUDY    30  20  66 NW14      30.40R WCI  19
DAYTON         CLOUDY    29  21  72 W15       30.34S WCI  18
WRIGHT-PAT AFB CLOUDY    29  20  70 W10       30.34R WCI  19
DAYTON GENERAL CLOUDY    28  19  69 W13       30.35R WCI  17
WILMINGTON     CLOUDY    28  18  66 W18G29    30.34R WCI  15
$$

OHZ036-037-039>041-045>050-054>059-063>069-073>076-082>088-280200-
  CENTRAL AND SOUTHEAST OHIO

CITY           SKY/WX    TMP DP  RH WIND       PRES   REMARKS
COLUMBUS       CLOUDY    30  21  69 W18G26    30.30R WCI  18
OSU AIRPORT    CLOUDY    30  22  72 W16G24    30.29R WCI  19
BOLTON FIELD   NOT AVBL
RICKENBACK AFB CLOUDY    30  23  73 W14G21    30.31R WCI  20
NEWARK         CLOUDY    32  24  72 W15       30.27R WCI  22
MARION         CLOUDY    30  23  75 W12G23    30.27R WCI  20
LANCASTER      CLOUDY    31  25  78 W10       30.30R WCI  22
ZANESVILLE     CLOUDY    30  23  75 W7        30.27R WCI  23
NEW PHILLY     MOCLDY    30  25  81 VRB5      30.25R WCI  25
$$



USA.gov is the U.S. government's official web portal to all federal, state and local government web resources and services.